T = 1992 Mar. 19.537 TT Peri. = 15.491 Node = 275.305 2000.0 q = 0.49915 AU Incl. = 20.242
m1 = 9.0 + 5 logΔ + 10.0 log r [ ,-41] ( 〜1992年 2月 7日) m1 = 9.5 + 5 logΔ - 15 log r [-41, 0] (1992年 2月 7日〜1992年 3月19日) m1 = 20 + 5 logΔ + 20 log r [ 0, ] (1992年 3月19日〜 ) ※ 灰色の曲線は、m1 = 9.0 + 5 logΔ + 10.0 log r の光度曲線です。